Location: Newark
(48.3453°N, 0.5589°E)
Time: 15:07:40
(UTC+00:00)

A-11 Canister half - Pass Details

Date: 10 December 2019
Orbit: 1517 x 1683 km, 47.2° (Epoch: 27 January)

Event Time Altitude Azimuth Distance (km) Brightness Sun altitude
Rises 14:07:53 0° 258° (WSW) 4,783 12.3 12.4°
Reaches altitude 10° 14:10:56 10° 258° (WSW) 3,820 11.9 12.1°
Maximum altitude 14:20:44 83° 172° (S) 1,660 9.5 11.2°
Drops below altitude 10° 14:30:52 10° 87° (E) 3,935 10.8 10.2°
Sets 14:34:03 0° 87° (E) 4,932 11.3 9.9°
